Regional Weather Roundup
Issued by NWS

Home | Current Version | Previous Version | Graphics & Text | Print | Product List | Glossary On
Versions: 1 2 3 4 5 6 7 8 9 10 11 12 13 14 15 16 17 18 19 20 21 22 23 24 25 26 27 28 29 30 31 32 33 34 35 36 37 38 39 40 41 42 43 44 45 46 47 48 49 50
748
ASUS43 KLMK 250110
RWRKY
KENTUCKY REGIONAL WEATHER ROUNDUP
NATIONAL WEATHER SERVICE LOUISVILLE KY
900 PM EDT SUN SEP 24 2017

NOTE "FAIR" INDICATES FEW OR NO CLOUDS BELOW 12,000 FEET
WITH NO SIGNIFICANT WEATHER AND/OR OBSTRUCTIONS TO VISIBILITY.

KYZ001>023-026-027-061>063-070>075-250200-
WESTERN AND SOUTH CENTRAL KENTUCKY

CITY           SKY/WX    TMP DP  RH WIND       PRES   REMARKS
PADUCAH        PTCLDY    75  62  64 CALM      29.97F
HENDERSON      PTCLDY    74  66  76 CALM      30.00R
OWENSBORO      CLOUDY    80  68  66 SE3       30.00R
HOPKINSVILLE   CLEAR     76  72  86 CALM      30.00R
BOWLING GREEN  PTCLDY    78  71  79 CALM      30.01R
GLASGOW        PTCLDY    71  70  99 CALM      30.03R
$$

KYZ024-025-028>034-038-045-046-053-250200-
NORTH CENTRAL KENTUCKY

CITY           SKY/WX    TMP DP  RH WIND       PRES   REMARKS
LOUISVILLE/SDF MOCLDY    81  58  45 E3        30.02R
LOUISVILLE/LOU PTCLDY    74  64  71 CALM      30.03R
FORT KNOX      PTCLDY    70  64  81 CALM      30.02R
$$

KYZ035>037-039>044-047>052-055>060-089>105-250200-
NORTHEAST KENTUCKY

CITY           SKY/WX    TMP DP  RH WIND       PRES   REMARKS
LEXINGTON      PTCLDY    79  60  52 E10       30.06R
COVINGTON      PTCLDY    74  53  48 SE3       30.06R
FRANKFORT      PTCLDY    72  61  68 CALM      30.03S
$$

KYZ054-064>069-076>088-106>120-250200-
SOUTHEAST KENTUCKY

CITY           SKY/WX    TMP DP  RH WIND       PRES   REMARKS
JACKSON        PTCLDY    75  60  59 CALM      30.09R
LONDON         PTCLDY    74  66  76 CALM      30.06S
SOMERSET       PTCLDY    72  66  83 CALM      30.06R
MIDDLESBORO    CLEAR     70  63  77 W5        30.08R
MONTICELLO     CLOUDY    70  67  90 NW9       30.07R
$$





USA.gov is the U.S. government's official web portal to all federal, state and local government web resources and services.